Other Public Products
Issued by NWS Grand Forks, ND

Home | Current Version | Previous Version | Text Only | Print | Product List | Glossary Off
Versions: 1 2 3 4 5 6 7 8 9 10 11 12 13 14 15 16 17 18 19 20 21 22 23 24 25 26 27 28 29 30 31 32 33 34 35 36 37 38 39 40 41 42 43 44 45 46 47 48 49 50

000
FPUS83 KFGF 041110
OPUFGF
PRAIRIE TO PINES WEATHER ROUNDUP
NATIONAL WEATHER SERVICE EASTERN NORTH DAKOTA/GRAND FORKS ND
600 AM CDT MON MAY 04 2015

 **SATELLITE DATA USED TO AUGMENT SKY COVER AT AUTOMATED STATIONS**
 *****  WEATHER ACROSS EASTERN NORTH DAKOTA  *****

CITY           SKY/WX    TMP DP  RH WIND       PRES   REMARKS
GRAND FORKS    PTCLDY    32  27  81 NW6       30.14R
GRAND FORKS AF CLEAR     33  28  82 NW8       30.15R
GRAND CITY NWS   N/A     34 N/A N/A VRB3        N/A
BUXTON         NOT AVBL
DEVILS LAKE    CLEAR     36  27  69 CALM      30.15S
FARGO          FAIR      39  26  59 CALM      30.14R
WAHPETON ARPT  SUNNY     36  27  69 CALM      30.14R
$$

 *****  WEATHER ACROSS CENTRAL AND WESTERN NORTH DAKOTA  *****

CITY           SKY/WX    TMP DP  RH WIND       PRES   REMARKS
JAMESTOWN      MOCLDY    37  28  70 W3        30.15R
BISMARCK       CLOUDY    32  27  81 CALM      30.18R
MINOT          CLEAR     36  25  64 SW8       30.14R
MINOT AFB      CLEAR     28  26  90 CALM      30.13S
GARRISON         N/A     31  25  78 VRB3      30.16R
WILLISTON      FLURRIES  30  23  75 CALM      30.13R
DICKINSON      CLOUDY    38  24  57 E8        30.13R
HETTINGER      CLOUDY    38  27  64 E7        30.15R
$$

 *****  OTHER OBSERVATIONS NORTHEAST NORTH DAKOTA  *****

CITY           SKY/WX    TMP DP  RH WIND       PRES   REMARKS
WALHALLA       FAIR      34  34 100 CALM      30.15S
LANGDON        FAIR      28  25  86 CALM      30.15S
CAVALIER       FAIR      36  32  87 W3        30.16R
GRAFTON        FAIR      37  37 100 NW5       30.16S
CANDO          FAIR      28  25  86 CALM      30.16R
FORT TOTTEN      N/A     40  34  80 NE2       29.95
ROLLA          NOT AVBL
RUGBY          NOT AVBL
 ***** THE ABOVE OBSERVATIONS ARE NON NWS ARE NOT QUALITY
        CONTROLLED AND MAY MIS-REPORT RAIN FOR SNOW...
$$

 *****  OTHER OBSERVATIONS SOUTHEAST NORTH DAKOTA *****

CITY           SKY/WX    TMP DP  RH WIND       PRES   REMARKS
COOPERSTOWN    NOT AVBL
VALLEY CITY    FAIR      34  28  80 CALM      30.15R
OAKES            N/A     37  28  70 NW3       30.15R
GWINNER        SUNNY     45  27  49 N8        30.15R
SHEYENNE NWR     N/A     32  27  80 CALM      29.95S
BUFFALO        NOT AVBL
WYNDMERE       NOT AVBL
 ***** THE ABOVE OBSERVATIONS ARE NON NWS ARE NOT QUALITY
       CONTROLLED AND MAY MIS-REPORT RAIN FOR SNOW...
$$

  *****  WEATHER ACROSS NORTHERN MINNESOTA  *****

CITY           SKY/WX    TMP DP  RH WIND       PRES   REMARKS
FLAG ISLAND    CLEAR     39  37  93 NW7       30.13R
WARROAD        CLEAR     30  27  86 CALM      30.15R
ROSEAU         CLEAR     32  27  80 CALM      30.15R
HALLOCK        CLEAR     34  30  86 CALM      30.15S
THF RVR FALLS  CLEAR     37  32  81 CALM      30.15R
HALSTAD        NOT AVBL
FOSSTON        NOT AVBL
BAUDETTE       CLEAR     35  34  96 W7        30.14R
WASKISH        FAIR      41  39  93 NW6       30.13R
CROOKSTON      CLEAR     43  34  70 E7        30.15R
$$
  *****  WEATHER ACROSS CENTRAL AND WEST MINNESOTA  *****

CITY           SKY/WX    TMP DP  RH WIND       PRES   REMARKS
BEMIDJI        CLEAR     33  28  83 CALM      30.13S
PARK RAPIDS    CLEAR     40  32  73 N3        30.12R
WADENA         CLEAR     36  28  75 CALM      30.12R
DETROIT LAKES  PTCLDY    43  37  81 CALM      30.13R
MOORHEAD       PTCLDY    37  27  65 CALM      30.15R
FERGUS FALLS   CLEAR     45  30  57 NE5       30.14R
ELBOW LAKE     FAIR      45  35  67 N3        30.13R
MORRIS MN      CLEAR     36  28  75 NW3       30.12R
STAPLES        CLEAR     36  30  80 CALM      30.11R
WHEATON        CLEAR     39  28  65 NW3       30.16R
$$
  *****  WEATHER ELSEWHERE ACROSS MINNESOTA  *****

CITY           SKY/WX    TMP DP  RH WIND       PRES   REMARKS
DULUTH         CLEAR     44  34  67 NW7       30.07R
INTRNTL FALLS  CLEAR     34  32  92 NW3       30.11R
ELY            CLEAR     30  28  93 CALM      30.08R
CLOQUET        CLEAR     39  32  75 CALM      30.08R
BRAINERD       CLEAR     37  35  92 CALM      30.11R
HIBBING        CLEAR     35  30  82 NW5       30.09R
ALEXANDRIA     CLEAR     46  33  60 CALM      30.13R
SAINT CLOUD    CLEAR     39  31  72 NW6       30.09R
MINNEAPOLIS    FAIR      51  35  54 N7        30.08R
$$

  *****  WEATHER ACROSS SOUTH DAKOTA  *****

CITY           SKY/WX    TMP DP  RH WIND       PRES   REMARKS
SIOUX FALLS    PTCLDY    49  28  44 N12       30.09R
BROOKINGS      CLEAR     43  27  52 N7        30.14R
WATERTOWN      CLEAR     39  26  59 N5        30.14R
HURON          CLEAR     33  24  69 CALM      30.15R
SISSETON         N/A     37  26  64 N6        30.13R
ABERDEEN       MOCLDY    34  24  67 CALM      30.16R
MITCHELL       CLEAR     40  31  70 NW3       30.13R
PIERRE         MOCLDY    41  25  53 E7        30.13S
MOBRIDGE       MOCLDY    38  25  59 CALM      30.14R
RAPID CITY     CLOUDY    46  41  82 W6        30.15R
$$

  *****  SOME WEATHER IN NEARBY STATES *****

CITY           SKY/WX    TMP DP  RH WIND       PRES   REMARKS
GLASGOW MT     CLEAR     38  24  57 E12       30.07S
GREAT FALLS MT CLEAR     36  28  73 SW9       29.94F
CHEYENNE WY    CLOUDY    45  39  79 SE14      30.11R
SCOTTSBLUFF NE CLOUDY    50  38  63 E8        30.10S
OMAHA NE       CLOUDY    58  50  75 N9        29.98R
DES MOINES IA  CLOUDY    62  55  77 N5        29.96R
DAVENPORT IA   LGT RAIN  60  57  89 S10       29.99F
CHICAGO IL     CLOUDY    60  54  80 W6        29.94R
EAU CLAIRE WI  CLEAR     51  40  65 N3        30.03R
LA CROSSE WI   MOCLDY    58  54  86 N7        30.01R
$$

  *****  SOME NATIONAL WEATHER *****

CITY           SKY/WX    TMP DP  RH WIND       PRES   REMARKS
LA GUARDIA NY  MOSUNNY   54  46  74 NE3       30.20R
RALEIGH NC     PTCLDY    54  52  93 CALM      30.28R
ATLANTA GA     PTCLDY    60  49  66 CALM      30.24R
NEW ORLEANS LA MOCLDY    69  62  78 E5        30.09R
OKLAHOMA CITY  MOCLDY    61  56  83 S7        29.97S
ALBUQUERQUE NM PTCLDY    59  41  51 NE10      30.00F
SALT LAKE CITY CLOUDY    59  45  59 S12       29.93S
LOS ANGELES CA PTCLDY    57  51  80 SW6       29.92F
BOISE ID       CLEAR     53  31  42 S8        29.85R
SEATTLE WA     CLEAR     46  39  77 CALM      29.88S
$$

*** WEATHER ACROSS MANITOBA...SASKATCHEWAN AND ONTARIO ***
                ***ONTARIO***

CITY           SKY/WX    TMP DP  RH WIND       PRES   REMARKS
GERALDTON      PTCLDY    41  39  93 NW6       29.94R
THUNDER BAY    PTCLDY    43  37  81 W5        30.00R
SIOUX LOOKOUT  CLOUDY    39  39 100 NW12      30.07R
TORONTO        MOCLDY    57  43  58 SE5       30.05R
BIG TROUT LK   FLURRIES  30  30 100 W5        29.99R
PICKLE LAKE    MOCLDY    36  34  93 NW5       30.01
DRYDEN         PTCLDY    36  36 100 W8        30.09R
KENORA         PTCLDY    36  34  93 NW5       30.13R
$$
                *** MANITOBA***

CITY           SKY/WX    TMP DP  RH WIND       PRES   REMARKS
BRANDON        CLEAR     28  25  86 NW9       30.14R WCI  20
DAUPHIN        CLEAR     37  32  81 W9        30.12R
ISLAND LAKE    PTCLDY    34  30  86 W10       30.00R
PILOT MOUND      N/A     28  25  86 S5          N/A  WCI  23
THE PAS        PTCLDY    27  23  86 CALM      30.12R
THOMPSON       MOCLDY    30  28  93 NW3       30.01R
WINNIPEG       PTCLDY    36  36 100 S9        30.16R
LYNN LAKE      FLURRIES  28  21  74 W8        30.02R WCI  20
CHURCHILL      CLOUDY    18  14  86 W7        29.92F WCI   8
GILLAM         MOCLDY    30  28  93 W12G18    29.94R WCI  21
$$
                ***SASKATCHEWAN***

CITY           SKY/WX    TMP DP  RH WIND       PRES   REMARKS
ESTEVAN        PTCLDY    30  30 100 CALM      30.13R
KINDERSLEY     PTCLDY    32  28  86 SE8       30.07F WCI  25
LLOYDMINSTER   CLOUDY    34  30  86 S7        30.04F
PRINCE ALBERT  PTCLDY    30  27  86 E2        30.12S
REGINA         PTCLDY    32  30  93 SE7       30.13S



USA.gov is the U.S. government's official web portal to all federal, state and local government web resources and services.